Hourly Data Report for October 04, 2014

All times are specified in Local Standard Time (LST). Add 1 hour to adjust for Daylight Saving Time where and when it is observed.

FREDERICTON
NEW BRUNSWICK

45°52'08.000" N
66°32'14.000" W
20.70 m
8101505
71700
YFC

Download Data

Hourly Data (October 2014)
Hourly Data Report for October 4, 2014
Temp Definition
°C
Dew Point Temp Definition
°C
Rel Hum Definition
%
Wind Dir Definition
10's deg

Wind Spd Definition
km/h
Visibility Definition
km
Stn Press Definition
kPa
Hmdx Definition


Wind Chill Definition


Weather Definition


TIME
00:00 Legend Double Dagger 8.7 8.0 95 3 11 16.1 101.30     LegendNANA
01:00 Legend Double Dagger 8.9 8.0 94 2 11 16.1 101.27     LegendNANA
02:00 Legend Double Dagger 9.3 8.2 93 2 11 16.1 101.21     LegendNANA
03:00 Legend Double Dagger 9.8 8.7 93 5 13 16.1 101.13     LegendNANA
04:00 Legend Double Dagger 10.2 9.3 94 5 9 16.1 101.11     LegendNANA
05:00 Legend Double Dagger 10.5 9.9 96 3 11 4.8 101.08     Fog
06:00 Legend Double Dagger 10.4 10.1 98 5 13 2.0 101.07     Rain,Fog
07:00 Legend Double Dagger 10.4 10.1 98 4 13 4.0 101.07     Fog
08:00 Legend Double Dagger 10.8 10.5 98 4 13 2.0 101.06     Rain,Fog
09:00 Legend Double Dagger 11.4 11.0 97 4 11 2.4 101.04     Rain,Fog
10:00 Legend Double Dagger 12.2 11.7 97 5 15 3.6 100.98     Rain,Fog
11:00 Legend Double Dagger 12.8 12.3 96 6 13 16.1 100.92     LegendNANA
12:00 Legend Double Dagger 13.5 13.0 97 5 13 16.1 100.88     LegendNANA
13:00 Legend Double Dagger 14.4 13.7 95 7 15 16.1 100.78     LegendNANA
14:00 Legend Double Dagger 15.2 14.2 94 7 17 16.1 100.73     LegendNANA
15:00 Legend Double Dagger 15.5 14.7 95 7 13 16.1 100.69     LegendNANA
16:00 Legend Double Dagger 16.0 15.2 95 7 13 16.1 100.65     LegendNANA
17:00 Legend Double Dagger 16.3 16.0 98 7 15 6.4 100.62     Rain,Fog
18:00 Legend Double Dagger 16.3 16.0 98 6 11 9.7 100.62     Fog
19:00 Legend Double Dagger 16.7 15.9 95 10 11 16.1 100.61     LegendNANA
20:00 Legend Double Dagger 16.5 15.9 96 8 11 16.1 100.63     LegendNANA
21:00 Legend Double Dagger 16.4 15.8 96 8 13 16.1 100.60     LegendNANA
22:00 Legend Double Dagger 16.4 15.6 95 9 15 16.1 100.58     LegendNANA
23:00 Legend Double Dagger 16.6 15.3 92 12 18 16.1 100.55     LegendNANA

Notes on Data Quality.

Legend

  • E = Estimated
  • M = Missing
  • NA = Not Available
  • ‡ = Partner data that is not subject to review by the National Climate Archives
Date modified: